Williams, AZ

6:19 AM MST on April 24, 2017 (GMT -0700)
Williams

Weather History for KCMR - September, 2013

Change the Weather History Date:

Monday, September 16, 2013

  Actual Average (K40G) Record (K40G)
Temperature  
Mean Temperature 62 °F -  
Max Temperature 77 °F 71 °F 77 °F (1997)
Min Temperature 48 °F 64 °F 55 °F (2002)
Degree Days  
Heating Degree Days 2    
Growing Degree Days 12 (Base 50)    
Moisture  
Dew Point 47 °F    
Average Humidity 60    
Maximum Humidity 87    
Minimum Humidity 29    
Precipitation  
Precipitation 0.00 in - - ()
Sea Level Pressure  
Sea Level Pressure 30.29 in    
Wind  
Wind Speed 7 mph (SSE)    
Max Wind Speed 13 mph    
Max Gust Speed -    
Visibility 10 miles    
Events      
Averages and records for this station are not official NWS values.
T = Trace of Precipitation, MM = Missing Value Source: NWS Daily Summary

Daily Weather History Graph

Daily Weather History Graph

Search for Another Location

Airport or City:

Trip Planner

Search our weather history database for the weather conditions in past years. The results will help you decide how hot, cold, wet, or windy it might be!

Date:

Astronomy

Sep. 16, 2013 Rise Set
Actual Time 6:12 AM MST 6:33 PM MST
Civil Twilight 5:47 AM MST 6:59 PM MST
Nautical Twilight 5:17 AM MST 7:29 PM MST
Astronomical Twilight 4:46 AM MST 7:59 PM MST
Moon 4:41 PM MST (9/16) 3:08 AM MST (9/16)
Length of Visible Light 13h 12m
Length of Day
12h 21m
Waxing Gibbous, 91% of the Moon is Illuminated
Sep 16
Waxing Gibbous
Sep 19
Full
Sep 26
Last Quarter
Oct 4
New
Oct 11
First Quarter

Hourly Weather History & Observations

Time (MST) Temp. Dew Point Humidity Pressure Visibility Wind Dir Wind Speed Gust Speed Precip Events Conditions
12:15 AM 53.6 °F 48.2 °F 82% 30.29 in 10.0 mi SE 5.8 mph - N/A   Clear
12:35 AM 53.6 °F 48.2 °F 82% 30.30 in 10.0 mi SSE 8.1 mph - N/A   Clear
12:55 AM 53.6 °F 46.4 °F 77% 30.30 in 10.0 mi SSE 5.8 mph - N/A   Clear
1:15 AM 53.6 °F 46.4 °F 77% 30.30 in 10.0 mi SSE 4.6 mph - N/A   Clear
1:35 AM 53.6 °F 46.4 °F 77% 30.30 in 10.0 mi SSE 5.8 mph - N/A   Clear
1:55 AM 53.6 °F 46.4 °F 77% 30.29 in 10.0 mi SSE 6.9 mph - N/A   Clear
2:15 AM 50.0 °F 46.4 °F 87% 30.29 in 10.0 mi SSE 4.6 mph - N/A   Clear
2:35 AM 50.0 °F 46.4 °F 87% 30.29 in 10.0 mi SSE 6.9 mph - N/A   Clear
2:55 AM 50.0 °F 46.4 °F 87% 30.29 in 10.0 mi SSE 10.4 mph - N/A   Clear
3:15 AM 53.6 °F 46.4 °F 77% 30.29 in 10.0 mi SSE 8.1 mph - N/A   Clear
3:35 AM 53.6 °F 46.4 °F 77% 30.29 in 10.0 mi SSE 9.2 mph - N/A   Clear
3:55 AM 51.8 °F 46.4 °F 82% 30.29 in 10.0 mi SSE 8.1 mph - N/A   Clear
4:15 AM 50.0 °F 46.4 °F 87% 30.29 in 10.0 mi South 8.1 mph - N/A   Clear
4:35 AM 50.0 °F 46.4 °F 87% 30.29 in 10.0 mi SSE 8.1 mph - N/A   Clear
4:55 AM 50.0 °F 44.6 °F 82% 30.29 in 10.0 mi SSE 9.2 mph - N/A   Clear
5:15 AM 50.0 °F 44.6 °F 82% 30.30 in 10.0 mi SSE 9.2 mph - N/A   Clear
5:35 AM 48.2 °F 44.6 °F 87% 30.30 in 10.0 mi SSE 9.2 mph - N/A   Clear
5:55 AM 48.2 °F 44.6 °F 87% 30.30 in 10.0 mi SSE 9.2 mph - N/A   Clear
6:15 AM 48.2 °F 44.6 °F 87% 30.31 in 10.0 mi SSE 9.2 mph - N/A   Clear
6:35 AM 48.2 °F 44.6 °F 87% 30.31 in 10.0 mi SSE 8.1 mph - N/A   Clear
6:55 AM 50.0 °F 46.4 °F 87% 30.32 in 10.0 mi South 6.9 mph - N/A   Clear
7:15 AM 55.4 °F 46.4 °F 72% 30.32 in 10.0 mi SSE 8.1 mph - N/A   Clear
7:35 AM 59.0 °F 48.2 °F 67% 30.32 in 10.0 mi SSE 5.8 mph - N/A   Clear
7:55 AM 62.6 °F 48.2 °F 59% 30.32 in 10.0 mi SSE 6.9 mph - N/A   Clear
8:15 AM 64.4 °F 48.2 °F 56% 30.32 in 10.0 mi SSE 6.9 mph - N/A   Clear
8:35 AM 66.2 °F 48.2 °F 52% 30.32 in 10.0 mi SE 9.2 mph - N/A   Clear
8:55 AM 68.0 °F 48.2 °F 49% 30.33 in 10.0 mi SE 11.5 mph - N/A   Clear
9:15 AM 69.8 °F 48.2 °F 46% 30.33 in 10.0 mi SE 11.5 mph - N/A   Clear
9:35 AM 71.6 °F 48.2 °F 43% 30.34 in 10.0 mi ESE 12.7 mph - N/A   Clear
9:55 AM 71.6 °F 48.2 °F 43% 30.34 in 10.0 mi SE 11.5 mph - N/A   Clear
10:15 AM 73.4 °F 48.2 °F 41% 30.34 in 10.0 mi SE 6.9 mph - N/A   Clear
10:35 AM 73.4 °F 46.4 °F 38% 30.34 in 10.0 mi NE 3.5 mph - N/A   Clear
10:55 AM 73.4 °F 46.4 °F 38% 30.33 in 10.0 mi WSW 4.6 mph - N/A   Clear
11:15 AM 73.4 °F 44.6 °F 36% 30.33 in 10.0 mi Calm Calm - N/A   Clear
11:35 AM 73.4 °F 46.4 °F 38% 30.33 in 10.0 mi South 4.6 mph - N/A   Partly Cloudy
11:55 AM 73.4 °F 44.6 °F 36% 30.32 in 10.0 mi Calm Calm - N/A   Mostly Cloudy
12:15 PM 75.2 °F 46.4 °F 36% 30.32 in 10.0 mi SSW 5.8 mph - N/A   Scattered Clouds
12:35 PM 75.2 °F 44.6 °F 34% 30.32 in 10.0 mi South 4.6 mph - N/A   Partly Cloudy
12:55 PM 73.4 °F 46.4 °F 38% 30.31 in 10.0 mi Calm Calm - N/A   Partly Cloudy
1:15 PM 73.4 °F 46.4 °F 38% 30.30 in 10.0 mi West 4.6 mph - N/A   Mostly Cloudy
1:35 PM 75.2 °F 48.2 °F 38% 30.29 in 10.0 mi WNW 6.9 mph - N/A   Mostly Cloudy
1:55 PM 75.2 °F 48.2 °F 38% 30.28 in 10.0 mi West 6.9 mph - N/A   Mostly Cloudy
2:15 PM 77.0 °F 50.0 °F 39% 30.27 in 10.0 mi WNW 6.9 mph - N/A   Partly Cloudy
2:35 PM 77.0 °F 50.0 °F 39% 30.27 in 10.0 mi NW 8.1 mph - N/A   Mostly Cloudy
2:55 PM 75.2 °F 48.2 °F 38% 30.26 in 10.0 mi WNW 6.9 mph - N/A   Mostly Cloudy
3:15 PM 77.0 °F 48.2 °F 36% 30.25 in 10.0 mi WNW 3.5 mph - N/A   Mostly Cloudy
3:35 PM 77.0 °F 44.6 °F 32% 30.25 in 10.0 mi South 6.9 mph - N/A   Mostly Cloudy
3:55 PM 75.2 °F 46.4 °F 36% 30.25 in 10.0 mi SSE 6.9 mph - N/A   Mostly Cloudy
4:15 PM 75.2 °F 44.6 °F 34% 30.24 in 10.0 mi SSE 8.1 mph - N/A   Mostly Cloudy
4:35 PM 75.2 °F 41.0 °F 29% 30.24 in 10.0 mi NE 5.8 mph - N/A   Partly Cloudy
4:55 PM 73.4 °F 50.0 °F 44% 30.24 in 10.0 mi NE 8.1 mph - N/A   Clear
5:15 PM 73.4 °F 48.2 °F 41% 30.24 in 10.0 mi NNE 4.6 mph - N/A   Clear
5:35 PM 73.4 °F 46.4 °F 38% 30.24 in 10.0 mi ENE 3.5 mph - N/A   Clear
5:55 PM 73.4 °F 46.4 °F 38% 30.24 in 10.0 mi Calm Calm - N/A   Clear
6:15 PM 71.6 °F 41.0 °F 33% 30.24 in 10.0 mi South 4.6 mph - N/A   Clear
6:35 PM 68.0 °F 44.6 °F 43% 30.24 in 10.0 mi South 6.9 mph - N/A   Clear
6:55 PM 66.2 °F 46.4 °F 49% 30.24 in 10.0 mi South 6.9 mph - N/A   Clear
7:15 PM 64.4 °F 48.2 °F 56% 30.25 in 10.0 mi SSE 6.9 mph - N/A   Clear
7:35 PM 62.6 °F 48.2 °F 59% 30.25 in 10.0 mi SSE 6.9 mph - N/A   Clear
7:55 PM 60.8 °F 48.2 °F 63% 30.26 in 10.0 mi SSE 6.9 mph - N/A   Clear
8:15 PM 59.0 °F 48.2 °F 67% 30.27 in 10.0 mi SSE 8.1 mph - N/A   Clear
8:35 PM 59.0 °F 48.2 °F 67% 30.27 in 10.0 mi SSE 8.1 mph - N/A   Clear
8:55 PM 57.2 °F 48.2 °F 72% 30.27 in 10.0 mi SSE 6.9 mph - N/A   Clear
9:15 PM 57.2 °F 48.2 °F 72% 30.27 in 10.0 mi SSE 8.1 mph - N/A   Clear
9:35 PM 57.2 °F 48.2 °F 72% 30.28 in 10.0 mi SSE 6.9 mph - N/A   Clear
9:55 PM 55.4 °F 48.2 °F 77% 30.28 in 10.0 mi SSE 8.1 mph - N/A   Clear
10:15 PM 55.4 °F 48.2 °F 77% 30.28 in 10.0 mi SSE 8.1 mph - N/A   Clear
10:35 PM 55.4 °F 48.2 °F 77% 30.28 in 10.0 mi SE 6.9 mph - N/A   Clear
10:55 PM 55.4 °F 48.2 °F 77% 30.28 in 10.0 mi SSE 6.9 mph - N/A   Clear
11:15 PM 55.4 °F 48.2 °F 77% 30.28 in 10.0 mi SSE 8.1 mph - N/A   Clear
11:35 PM 55.4 °F 48.2 °F 77% 30.27 in 10.0 mi SSE 6.9 mph - N/A   Clear
11:55 PM 55.4 °F 48.2 °F 77% 30.27 in 10.0 mi SSE 8.1 mph - N/A   Clear